Regional Weather Roundup
Issued by NWS

Home | Current Version | Previous Version | Text Only | Print | Product List | Glossary Off
Versions: 1 2 3 4 5 6 7 8 9 10 11 12 13 14 15 16 17 18 19 20 21 22 23 24 25 26 27 28 29 30 31 32 33 34 35 36 37 38 39 40 41 42 43 44 45 46 47 48 49 50

000
ASUS44 KMEG 210600
RWRTN
TENNESSEE HOURLY STATE WEATHER ROUNDUP
NATIONAL WEATHER SERVICE MEMPHIS TN
100 AM CDT MON MAY 21 2018

TNZ002-004-019-021-049-052-054-088>092-210700-
WEST TENNESSEE

CITY           SKY/WX    TMP DP  RH WIND       PRES   REMARKS
MEMPHIS INTL   LGT RAIN  73  70  90 NE9       30.04F
NWS MEMPHIS      N/A     72 N/A N/A MISG        N/A
JACKSON        MOCLDY    72  66  81 CALM      30.05F
DYERSBURG      MOCLDY    69  67  93 NE6       30.06F
$$

TNZ008-025-027-028-033-062-065-066-210700-
NORTH MIDDLE TENNESSEE

CITY           SKY/WX    TMP DP  RH WIND       PRES   REMARKS
NASHVILLE      MOCLDY    68  65  90 S6        30.11F
CLARKSVILLE    CLOUDY    68  64  87 CALM      30.06F
SMYRNA         FAIR      66  64  93 S3        30.12F
CROSSVILLE     FAIR      66  64  93 CALM      30.18F
$$

TNZ061-075-076-078-094-096-097-210700-
SOUTH MIDDLE TENNESSEE

CITY           SKY/WX    TMP DP  RH WIND       PRES   REMARKS
$$

TNZ017-018-042-046-047-210700-
NORTHEAST TENNESSEE

CITY           SKY/WX    TMP DP  RH WIND       PRES   REMARKS
TRI CITIES     FAIR      67  67 100 CALM      30.15F
$$

TNZ012-013-036-069-073-074-210700-
CENTRAL EAST TENNESSEE

CITY           SKY/WX    TMP DP  RH WIND       PRES   REMARKS
KNOXVILLE      MOCLDY    72  67  84 W9        30.13F
OAK RIDGE      FAIR      72  70  93 CALM      30.15F
$$

TNZ083-085-099-210700-
SOUTHEAST TENNESSEE

CITY           SKY/WX    TMP DP  RH WIND       PRES   REMARKS
CHATTANOOGA    FAIR      69  65  86 NW5       30.14F
$$

SKY/WX REPORTED AS FAIR MEANS FEW OR NO CLOUDS BELOW
12 THOUSAND FEET.




USA.gov is the U.S. government's official web portal to all federal, state and local government web resources and services.